DW6386 Weather Reports


time (UTC)temp
C
wind
direction
speed
KPH
gust
KPH
rain 1hr
cm
rain 24hr
cm
rain mn
cm
humidity
%
barometer
mb
20260906231520 29 320 3.2 8.0 0.00 0.23 0.23 69 1008.8
20260906230019 30 165 0.0 6.4 0.00 0.23 0.23 70 1008.7
20260906224519 30 108 0.0 6.4 0.00 0.23 0.23 67 1008.6
20260906223018 30 72 1.6 11.3 0.00 0.23 0.23 68 1008.5
20260906221518 30 160 0.0 8.0 0.00 0.23 0.23 66 1008.2
20260906220022 30 141 1.6 6.4 0.00 0.23 0.23 67 1008.0
20260906214517 30 124 1.6 4.8 0.00 0.23 0.23 66 1007.9
20260906213016 31 129 1.6 9.7 0.00 0.23 0.23 66 1008.1
20260906211533 31 90 3.2 8.0 0.00 0.23 0.23 64 1008.0
20260906210023 31 143 1.6 9.7 0.00 0.23 0.23 64 1007.8
20260906204513 32 155 0.0 3.2 0.00 0.23 0.23 61 1007.9
20260906203011 32 203 0.0 9.7 0.00 0.23 0.23 62 1008.1
20260906201533 33 175 0.0 1.6 0.00 0.23 0.23 62 1008.1
20260906200010 33 297 0.0 3.2 0.00 0.23 0.23 62 1008.1
20260906194506 32 258 0.0 3.2 0.00 0.23 0.23 62 1008.6
20260906193005 32 173 0.0 0.0 0.00 0.23 0.23 66 1008.8
20260906191504 33 169 0.0 3.2 0.00 0.23 0.23 60 1008.9
20260906190001 35 247 0.0 4.8 0.00 0.23 0.23 58 1009.2
20260906184558 34 70 0.0 3.2 0.00 0.23 0.23 62 1009.2
20260906183054 33 37 0.0 3.2 0.00 0.23 0.23 62 1009.7
20260906181552 32 219 0.0 3.2 0.00 0.23 0.23 64 1009.9
20260906180107 33 63 0.0 6.4 0.00 1.45 0.23 63 1010.1
20260906174557 32 143 0.0 3.2 0.00 1.45 0.23 65 1010.3
20260906173051 32 70 1.6 6.4 0.00 1.45 0.23 64 1010.4
20260906171546 32 284 1.6 6.4 0.00 1.45 0.23 67 1010.6
20260906170047 32 52 1.6 9.7 0.00 1.45 0.23 69 1010.7
20260906164544 32 53 3.2 8.0 0.00 1.45 0.23 66 1010.9
20260906163041 32 328 0.0 6.4 0.00 1.45 0.23 69 1011.0
20260906161539 31 111 0.0 4.8 0.00 1.45 0.23 70 1011.0
20260906160036 30 176 0.0 4.8 0.00 1.45 0.23 72 1011.1
20260906154533 30 214 0.0 3.2 0.00 1.45 0.23 72 1011.3
20260906153035 29 240 1.6 4.8 0.00 1.45 0.23 74 1011.5
20260906151535 28 258 0.0 4.8 0.00 1.45 0.23 76 1011.5
20260906150026 28 215 0.0 6.4 0.00 1.45 0.23 75 1011.6
20260906144521 28 36 0.0 3.2 0.00 1.45 0.23 76 1011.8
20260906143027 27 192 0.0 4.8 0.00 1.45 0.23 78 1011.8
20260906141515 27 247 1.6 4.8 0.00 1.45 0.23 81 1011.8
20260906140021 27 262 0.0 4.8 0.00 1.45 0.23 82 1011.9
20260906134514 26 190 0.0 0.0 0.00 1.45 0.23 83 1011.9
20260906133020 26 190 0.0 0.0 0.00 1.45 0.23 89 1011.9
20260906131504 25 153 0.0 0.0 0.00 1.45 0.23 93 1012.0
20260906124556 23 94 0.0 0.0 0.00 1.45 0.23 98 1012.0
20260906123059 22 93 0.0 0.0 0.00 1.45 0.23 98 1011.9
20260906121553 21 93 0.0 0.0 0.00 1.45 0.23 98 1011.8
20260906120052 21 93 0.0 0.0 0.00 1.45 0.23 99 1011.4
20260906114549 20 93 0.0 0.0 0.00 1.45 0.23 99 1011.2
20260906113047 20 93 0.0 0.0 0.00 1.45 0.23 98 1011.2
20260906111549 20 93 0.0 0.0 0.00 1.45 0.23 98 1011.0
20260906110052 20 93 0.0 0.0 0.00 1.45 0.23 98 1010.8
20260906104544 20 93 0.0 0.0 0.00 1.45 0.23 98 1010.6
20260906103100 20 93 0.0 1.6 0.00 1.45 0.23 98 1010.3
20260906101543 20 93 0.0 0.0 0.00 1.45 0.23 98 1010.1
20260906100042 20 93 0.0 0.0 0.00 1.45 0.23 98 1010.2
20260906094539 21 93 0.0 0.0 0.00 1.45 0.23 97 1010.2
20260906093040 21 84 0.0 1.6 0.00 1.45 0.23 97 1010.0
20260906091538 21 84 0.0 0.0 0.00 1.45 0.23 97 1009.9
20260906090054 21 84 0.0 1.6 0.00 1.45 0.23 97 1010.0
20260906084535 21 84 0.0 0.0 0.00 1.45 0.23 97 1010.1
20260906083038 21 82 0.0 3.2 0.00 1.45 0.23 96 1010.2
20260906081532 21 89 0.0 1.6 0.00 1.45 0.23 96 1010.2
20260906080031 21 82 0.0 4.8 0.00 1.45 0.23 95 1010.4
20260906074530 21 69 3.2 11.3 0.00 1.45 0.23 95 1010.5
20260906073030 21 73 1.6 9.7 0.03 1.45 0.23 96 1010.9
20260906071526 22 113 0.0 9.7 0.23 1.45 0.23 98 1011.0
20260906070034 22 78 3.2 9.7 0.23 1.45 0.23 99 1010.9
20260906064522 22 68 0.0 1.6 0.23 1.45 0.23 99 1010.6
20260906063036 22 173 0.0 0.0 0.18 1.42 0.18 99 1010.4
20260906061519 22 113 0.0 0.0 0.00 1.24 0.00 99 1010.8
20260906060019 22 107 0.0 0.0 0.00 1.24 0.00 99 1010.7
20260906054517 22 107 0.0 0.0 0.00 1.24 0.00 98 1010.5
20260906053016 22 107 0.0 0.0 0.00 1.24 0.00 98 1010.5
20260906051523 22 107 0.0 0.0 0.00 1.24 0.00 98 1010.7
20260906050013 22 106 0.0 0.0 0.00 1.24 0.00 98 1010.7
20260906044512 22 106 0.0 0.0 0.00 1.24 0.00 98 1010.9
20260906043009 22 106 0.0 1.6 0.00 1.24 0.00 98 1011.1
20260906041508 22 106 0.0 0.0 0.00 1.24 0.00 98 1011.1
20260906040019 22 105 0.0 0.0 0.00 1.24 1.24 98 1011.2
20260906034505 22 170 0.0 0.0 0.00 1.24 1.24 98 1011.1
20260906033005 22 170 0.0 0.0 0.00 1.24 1.24 98 1011.0
20260906031507 22 170 0.0 0.0 0.00 1.24 1.24 98 1011.0
20260906030005 22 170 0.0 0.0 0.00 1.24 1.24 98 1011.1
20260906024503 22 170 0.0 0.0 0.00 1.24 1.24 97 1010.7
20260906023004 22 170 0.0 0.0 0.00 1.24 1.24 97 1010.7
20260906021503 23 170 0.0 0.0 0.00 1.24 1.24 97 1010.4
20260906020003 23 170 0.0 0.0 0.00 1.24 1.24 97 1010.5
20260906014502 23 170 0.0 0.0 0.00 1.24 1.24 96 1010.3
20260906013001 23 184 0.0 0.0 0.00 1.24 1.24 96 1010.2
20260906011501 23 184 0.0 0.0 0.00 1.24 1.24 96 1010.1
20260906010001 23 184 0.0 0.0 0.00 1.24 1.24 95 1010.2
20260906004603 23 184 0.0 0.0 0.00 1.24 1.24 94 1010.2
20260906003059 24 184 0.0 0.0 0.00 1.24 1.24 93 1010.2
20260906001559 25 186 0.0 0.0 0.00 1.24 1.24 93 1010.2
20260906000108 25 186 0.0 0.0 0.00 1.24 1.24 91 1010.3
20260905234619 26 200 0.0 0.0 0.00 1.24 1.24 90 1010.2
20260905233058 26 200 0.0 0.0 0.00 1.24 1.24 89 1010.2